GFSFLT1_con_sbcape_078.txt.gz
CAPE
7 15 92 233 203 0 0 0 0 2 0 0 0 0 2 0 23 15 36 23 135 163 126 62 116 178 225 215 133 100 81 185 194
254 69 145 107 64 1 0 0 3 1 0 0 0 0 1 4 6 13 11 26 45 17 17 10 9 25 29 13 19 13 18 13 39
63 58 192 84 3 5 0 1 4 0 0 0 0 0 4 4 10 20 13 125 15 9 3 4 3 8 5 2 2 3 3 4 6
140 159 149 87 43 4 0 1 0 0 0 0 0 0 0 1 5 13 0 110 9 11 8 9 10 7 4 1 0 1 2 1 2
156 128 159 151 80 38 2 0 0 0 0 0 0 0 0 0 0 0 0 0 1 4 5 5 4 5 2 1 1 1 2 2 4
1 12 73 113 97 20 0 0 0 0 0 0 0 0 0 0 0 0 0 0 3 5 1 2 2 2 2 1 0 2 1 1 2
0 2 42 101 69 46 12 26 0 0 0 0 0 0 0 0 0 0 0 0 2 0 0 0 0 0 0 0 1 2 1 2 1
0 0 0 0 0 0 3 31 0 0 0 0 0 0 0 0 0 0 0 0 0 0 0 0 0 0 0 0 0 0 0 1 1
0 0 0 0 0 0 0 0 0 0 0 0 0 0 0 0 0 0 0 0 0 0 0 0 0 0 0 0 0 0 0 0 1
0 0 0 0 0 0 0 0 0 0 0 0 0 0 0 0 0 0 0 0 0 0 0 0 0 0 0 0 0 0 0 0 0
0 0 0 0 0 0 0 0 0 0 0 0 0 0 0 0 0 0 0 0 0 0 0 0 0 0 0 0 0 0 0 0 0
0 0 0 0 0 0 0 0 0 0 0 0 0 0 0 0 0 0 0 0 0 0 0 0 0 0 0 0 0 0 0 0 0
0 0 0 0 0 0 0 0 0 0 0 0 0 0 0 0 0 0 0 0 0 0 0 0 0 0 0 0 0 0 0 0 0
0 0 0 0 0 0 0 0 0 0 0 0 0 0 0 0 0 0 0 0 0 0 0 0 0 0 0 0 0 0 0 0 0
0 0 0 0 0 0 0 0 0 0 0 0 0 0 0 0 0 0 0 0 0 0 0 0 0 0 0 0 0 0 0 0 0
0 0 0 0 0 0 0 0 0 0 0 0 0 0 0 0 0 0 0 0 0 0 0 0 0 0 0 0 0 0 0 0 0
0 0 0 0 0 0 0 0 0 0 0 0 0 0 0 0 0 0 0 0 0 0 0 0 0 0 0 0 0 0 0 0 0
39 0 0 0 0 0 0 0 0 0 0 0 0 0 0 0 0 0 0 0 0 0 0 0 0 0 0 0 0 0 0 0 0
179 62 20 3 0 0 0 0 0 0 0 0 0 0 0 0 0 0 0 0 0 0 0 0 0 0 0 0 0 0 0 0 0
147 200 244 50 53 23 0 0 0 0 0 0 0 0 0 0 0 0 0 0 0 0 0 0 0 0 0 0 0 0 0 0 0

GFSFLT1_con_sbcape_081.txt.gz
CAPE
11 2 83 126 12 0 0 3 2 0 0 0 0 2 18 16 10 13 46 30 171 161 92 198 181 187 144 134 101 98 157 264 341
31 37 210 90 3 0 0 2 0 0 0 0 0 8 13 8 5 11 0 4 10 9 14 16 26 20 11 9 9 7 8 21 97
53 77 175 48 1 0 0 1 0 0 0 0 0 1 8 8 4 1 0 16 7 8 4 3 4 6 3 4 4 4 6 8 9
83 222 198 18 1 0 1 1 0 0 0 0 0 0 4 0 1 0 0 10 6 7 9 7 6 4 2 3 3 3 3 5 5
248 154 172 167 82 14 45 0 0 0 0 0 0 0 0 0 0 0 0 0 2 3 2 4 4 2 1 1 2 1 1 2 3
6 51 95 121 116 49 11 0 8 0 0 0 0 0 0 0 0 0 0 0 3 1 0 1 1 1 1 1 2 1 1 1 2
0 21 46 106 83 58 47 38 40 0 0 0 0 0 0 0 0 0 0 0 2 0 0 0 1 1 0 1 0 0 1 1 1
0 0 5 3 3 0 23 43 0 0 0 0 0 0 0 0 0 0 0 0 0 0 0 0 0 0 0 0 0 0 1 0 0
0 0 0 0 0 0 0 0 0 0 0 0 0 0 0 0 0 0 0 0 0 0 0 0 0 0 0 0 0 0 0 0 0
0 0 0 0 0 0 0 0 0 0 0 0 0 0 0 0 0 0 0 0 0 0 0 0 0 0 0 0 0 0 0 0 0
0 0 0 0 0 0 0 0 0 0 0 0 0 0 0 0 0 0 0 0 0 0 0 0 0 0 0 0 0 0 0 0 0
0 0 0 0 0 0 0 0 0 0 0 0 0 0 0 0 0 0 0 0 0 0 0 0 0 0 0 0 0 0 0 0 0
0 0 0 0 0 0 0 0 0 0 0 0 0 0 0 0 0 0 0 0 0 0 0 0 0 0 0 0 0 0 0 0 0
0 0 0 0 0 0 0 0 0 0 0 0 0 0 0 0 0 0 0 0 0 0 0 0 0 0 0 0 0 0 0 0 0
0 0 0 0 0 0 0 0 0 0 0 0 0 0 0 0 0 0 0 0 0 0 0 0 0 0 0 0 0 0 0 0 0
0 0 0 0 0 0 0 0 0 0 0 0 0 0 0 0 0 0 0 0 0 0 0 0 0 0 0 0 0 0 0 0 0
0 0 0 0 0 0 0 0 0 0 0 0 0 0 0 0 0 0 0 0 0 0 0 0 0 0 0 0 0 0 0 0 0
0 0 0 0 0 0 0 0 0 0 0 0 0 0 0 0 0 0 0 0 0 0 0 0 0 0 0 0 0 0 0 0 0
18 0 0 0 0 0 0 0 0 0 0 0 0 0 0 0 0 0 0 0 0 0 0 0 0 0 0 0 0 0 0 0 0
40 7 4 0 0 0 0 0 0 0 0 0 0 0 0 0 0 0 0 0 0 0 0 0 0 0 0 0 0 0 0 0 0

GFSFLT1_con_sbcape_084.txt.gz
CAPE
9 41 198 8 0 0 1 0 0 0 0 0 9 24 13 12 17 2 37 60 180 190 218 206 188 147 103 82 60 81 158 284 391
4 87 95 4 0 0 0 0 0 0 0 0 3 4 1 0 0 0 0 0 8 14 62 77 51 14 5 7 6 2 4 5 66
2 150 86 0 0 0 0 0 0 0 0 0 0 0 0 0 0 0 0 4 7 7 4 4 7 5 4 4 5 6 7 9 6
76 260 124 34 1 0 0 0 0 0 0 0 0 0 0 0 0 0 0 7 3 5 5 5 6 3 2 1 3 4 5 6 7
284 150 121 99 98 91 58 0 0 0 0 0 0 0 0 0 0 0 0 1 1 3 2 4 3 0 1 1 0 2 3 4 6
103 77 126 126 93 88 53 22 22 0 0 0 0 0 0 0 0 0 27 0 2 0 1 0 0 0 0 1 1 2 1 3 4
32 65 92 157 112 100 73 56 57 0 0 0 0 0 0 0 0 0 0 0 0 0 0 0 0 0 0 0 0 1 1 1 2
0 0 18 6 16 5 34 40 0 0 0 0 0 0 0 0 0 0 27 0 0 0 0 0 0 0 0 0 0 0 0 0 1
0 0 0 0 0 0 0 0 0 0 0 0 0 0 0 0 0 0 0 0 0 0 0 0 0 0 0 0 0 0 0 0 0
0 0 0 0 0 0 0 0 0 0 0 0 0 0 0 0 0 0 0 0 0 0 0 0 0 0 0 0 0 0 0 0 0
0 0 0 0 0 0 0 0 0 0 0 0 0 0 0 0 0 0 0 0 0 0 0 0 0 0 0 0 0 0 0 0 0
0 0 0 0 0 0 0 0 0 0 0 0 0 0 0 0 0 0 0 0 0 0 0 0 0 0 1 0 0 0 0 0 0
0 0 0 0 0 0 0 0 0 0 0 0 0 0 0 0 0 0 0 0 0 0 0 0 0 0 1 2 0 0 0 0 0
0 0 0 0 0 0 0 0 0 0 0 0 0 0 0 0 0 0 0 0 0 0 0 0 0 0 0 1 1 0 0 0 0
0 0 0 0 0 0 0 0 0 0 0 0 0 0 0 0 0 0 0 0 0 0 0 0 0 0 0 0 1 0 0 0 0
0 0 0 0 0 0 0 0 0 0 0 0 0 0 0 0 0 0 0 0 0 0 0 0 0 0 0 0 0 0 0 0 0
0 0 0 0 0 0 0 0 0 0 0 0 0 0 0 0 0 0 0 0 0 0 0 0 0 0 0 0 0 0 0 0 0
0 0 0 0 0 0 0 0 0 0 0 0 0 0 0 0 0 0 0 0 0 0 0 0 0 0 0 0 0 0 0 0 0
0 0 0 0 0 0 0 0 0 0 0 0 0 0 0 0 0 0 0 0 0 0 0 0 0 0 0 0 0 0 0 0 0
0 0 0 0 0 0 0 0 0 0 0 0 0 0 0 0 0 0 0 0 0 0 0 0 0 0 0 0 0 0 0 0 0

GFSFLT1_con_sbcape_087.txt.gz
CAPE
327 255 7 0 0 0 0 0 1 0 0 18 47 50 15 0 0 0 60 26 164 168 157 205 147 96 75 48 36 42 222 339 355
82 134 2 0 0 0 0 0 0 0 0 4 0 21 0 0 0 0 0 1 6 8 50 79 55 16 6 4 2 4 5 5 39
123 61 9 0 0 0 0 0 0 0 0 0 0 23 0 0 0 0 0 19 5 3 3 3 4 3 6 4 3 6 5 4 4
140 134 63 4 0 0 0 0 0 0 0 0 0 11 0 0 0 0 0 2 2 2 3 4 3 4 3 3 4 4 4 4 4
349 135 130 101 102 77 0 0 0 0 0 0 0 0 0 0 0 0 0 0 1 1 2 2 0 2 1 1 2 2 3 3 3
125 51 84 119 143 84 14 0 7 0 0 0 0 0 0 0 0 0 29 0 1 0 1 1 0 0 1 1 2 1 3 3 3
47 70 82 131 101 106 66 33 36 0 0 0 0 0 0 0 0 0 2 0 0 0 0 0 0 0 0 1 1 1 1 2 2
6 4 53 26 29 4 29 24 0 0 0 0 0 0 0 0 0 0 37 0 0 0 0 0 0 0 0 0 0 1 1 1 2
0 0 0 3 0 0 0 0 0 0 0 0 0 0 0 0 0 0 0 18 0 0 0 0 0 1 1 0 0 0 0 0 0
0 0 0 0 0 0 0 0 0 0 0 0 0 0 0 0 0 0 0 11 0 0 0 0 0 1 1 0 0 1 0 0 0
0 0 0 0 0 0 0 0 0 0 0 0 0 0 0 0 0 0 0 0 0 0 0 0 0 1 2 1 0 0 0 0 0
0 0 0 0 0 0 0 0 0 0 0 0 0 0 0 0 0 0 0 0 0 0 0 0 1 1 3 2 0 0 0 0 0
0 0 0 0 0 0 0 0 0 0 0 0 0 0 0 0 0 0 0 0 0 0 0 0 0 2 3 5 1 0 0 0 0
0 0 0 0 0 0 0 0 0 0 0 0 0 0 0 0 0 0 0 0 0 0 0 0 0 0 1 5 11 3 0 0 0
0 0 0 0 0 0 0 0 0 0 0 0 0 0 0 0 0 0 0 0 0 0 0 0 0 0 0 0 7 10 1 0 0
0 0 0 0 0 0 0 0 0 0 0 0 0 0 0 0 0 0 0 0 0 0 0 0 0 0 0 0 0 0 10 6 0
0 0 0 0 0 0 0 0 0 0 0 0 0 0 0 0 0 0 0 0 0 0 0 0 0 0 0 0 0 0 1 7 2
0 0 0 0 0 0 0 0 0 0 0 0 0 0 0 0 0 0 0 0 0 0 0 0 0 0 0 0 0 0 0 0 3
0 0 0 0 0 0 0 0 0 0 0 0 0 0 0 0 0 0 0 0 0 0 0 0 0 0 0 0 0 0 0 0 0
0 0 0 0 0 0 0 0 0 0 0 0 0 0 0 0 0 0 0 0 0 0 0 0 0 0 0 0 0 0 0 1 15

GFSFLT1_con_sbcape_090.txt.gz
CAPE
326 1 0 0 2 2 7 11 7 1 45 75 107 13 0 0 0 0 58 45 236 250 221 170 101 50 15 8 8 42 188 211 218
322 0 0 0 0 1 6 3 1 0 32 41 97 62 0 0 0 0 0 0 5 5 6 5 11 9 1 6 4 3 1 2 4
330 0 0 0 0 0 2 1 0 0 0 9 83 9 0 0 0 0 0 22 3 5 3 4 5 7 7 6 7 8 8 9 8
345 48 11 0 0 0 0 0 0 0 0 0 66 0 0 0 0 0 0 6 2 4 4 4 4 4 4 4 5 5 7 7 8
408 88 95 81 65 40 12 0 0 0 0 0 43 0 0 0 0 0 0 0 1 0 1 0 1 1 1 2 3 4 5 7 8
81 43 83 137 152 47 37 23 20 0 0 0 0 0 0 0 0 0 0 0 0 0 0 0 0 1 1 2 3 5 7 6 6
6 17 72 156 145 100 51 56 33 0 0 0 0 0 0 0 0 0 0 0 0 0 0 0 0 1 0 1 2 3 4 3 3
0 0 10 5 32 14 14 8 0 0 0 0 0 0 0 0 0 0 11 0 0 0 0 0 0 0 0 1 1 2 3 3 4
1 2 8 8 0 0 0 0 0 0 0 0 0 0 0 0 0 0 0 11 0 0 0 0 0 0 0 0 1 1 1 2 2
1 0 1 0 0 0 0 0 0 0 0 0 0 0 0 0 0 0 0 8 3 0 0 0 0 0 0 0 0 2 1 1 0
0 0 1 0 0 0 0 0 0 0 0 0 0 0 0 0 0 0 0 0 10 0 0 0 0 0 1 1 0 0 0 0 0
0 0 0 0 0 0 0 0 0 0 0 0 0 0 0 0 0 0 0 0 0 0 0 0 0 0 3 4 0 0 0 0 0
0 0 0 0 0 0 0 0 0 0 0 0 0 0 0 0 0 0 0 0 0 0 5 0 0 0 3 6 6 0 0 0 0
0 0 0 0 0 0 0 0 0 0 0 0 0 0 0 0 0 0 0 0 0 0 0 0 0 0 0 3 12 8 0 0 0
0 0 0 0 0 0 0 0 0 0 0 0 0 0 0 0 0 0 0 0 0 0 0 0 0 0 0 0 2 12 9 0 0
0 0 0 0 0 0 0 0 0 0 0 0 0 0 0 0 0 0 0 0 0 0 0 0 0 0 0 0 0 3 17 11 0
0 0 0 0 0 0 0 0 0 0 0 0 0 0 0 0 0 0 0 0 0 0 0 0 0 0 0 0 0 0 0 22 11
0 0 0 0 0 0 0 0 0 0 0 0 0 0 0 0 0 0 0 0 0 0 0 0 0 0 0 0 0 0 0 0 0
0 0 0 0 0 0 0 0 0 0 0 0 0 0 0 0 0 0 0 0 0 0 0 0 0 0 0 0 0 0 0 0 1
1 0 0 0 0 0 0 0 0 0 0 0 0 0 0 0 0 0 0 0 0 0 0 0 0 0 0 0 0 0 0 0 1

GFSFLT1_con_sbcape_093.txt.gz
CAPE
7 0 1 7 14 17 16 13 12 30 73 65 2 30 1 0 101 33 51 160 161 103 11 2 2 1 1 2 0 0 3 3 6
1 0 0 0 7 11 11 8 23 47 63 85 73 0 0 0 0 0 1 4 3 4 0 2 3 5 7 5 4 3 2 6 3
0 0 1 0 2 6 8 6 9 0 71 121 47 0 0 0 0 0 1 10 4 4 3 4 6 6 4 5 5 6 7 7 7
33 0 2 1 1 6 9 0 0 0 4 110 20 0 0 0 0 0 0 6 5 3 3 3 3 3 3 3 4 6 6 5 9
142 66 47 49 66 60 66 0 0 0 0 77 15 0 0 0 0 0 1 2 2 3 1 2 3 2 3 3 4 6 5 8 8
55 11 58 96 96 62 35 35 25 0 8 37 0 0 0 0 0 0 0 0 0 1 0 0 2 3 4 4 4 6 6 6 7
72 51 66 134 87 66 68 51 0 0 0 0 0 0 0 0 0 0 0 0 0 0 0 0 1 2 3 4 4 3 3 6 8
112 127 125 105 1 36 23 28 0 0 0 0 0 0 0 0 0 0 0 0 0 0 0 0 0 2 1 2 2 2 3 4 2
110 109 93 54 17 15 21 9 0 0 0 0 0 0 0 0 0 0 0 8 0 0 0 0 0 1 0 1 2 1 2 2 3
56 98 80 62 21 15 12 5 0 0 0 0 0 0 0 0 0 0 0 0 0 0 0 0 0 0 0 1 0 1 1 1 0
57 59 66 55 29 13 2 0 0 0 0 0 0 0 0 0 0 0 0 0 3 0 0 0 0 1 1 0 0 0 0 0 0
35 43 38 33 20 7 0 0 0 0 0 0 0 0 0 0 0 0 0 0 0 0 0 0 0 0 2 3 0 0 0 0 0
0 3 9 8 6 0 0 0 0 0 0 0 0 0 0 0 0 0 0 0 0 0 0 0 0 2 0 4 7 0 0 0 0
0 0 0 0 0 0 0 0 0 0 0 0 0 0 0 0 0 0 0 0 0 0 0 0 0 6 0 4 9 10 0 0 0
0 0 0 0 0 0 0 0 0 0 0 0 0 0 0 0 0 0 0 0 0 0 0 0 0 0 0 0 4 16 19 0 0
0 0 0 0 0 0 0 0 0 0 0 0 0 0 0 0 0 0 0 0 0 0 0 0 0 0 0 0 0 0 19 7 0
0 0 0 0 0 0 0 0 0 0 0 0 0 0 0 0 0 0 0 0 0 0 0 0 0 0 0 0 3 32 3 43 14
13 0 0 0 0 0 0 0 0 0 0 0 0 0 0 0 0 0 0 0 0 0 0 0 0 0 0 0 0 0 6 7 29
0 0 0 0 0 0 0 0 0 0 0 0 0 0 0 0 0 0 0 0 0 0 0 0 0 0 0 0 0 0 0 0 26
3 0 0 0 0 0 0 0 0 0 0 0 0 0 0 0 0 0 2 0 0 0 0 0 0 0 0 0 0 0 0 3 43

GFSFLT1_con_sbcape_096.txt.gz
CAPE
0 2 8 20 26 29 11 17 43 74 43 11 49 22 4 29 28 24 7 20 18 9 6 5 2 2 5 6 7 5 3 2 2
0 0 4 18 31 9 19 63 55 61 61 94 24 0 0 25 15 1 5 6 5 4 2 3 4 5 6 6 4 4 4 5 4
0 0 2 12 18 16 16 33 44 107 123 30 0 0 0 5 0 1 0 10 5 3 3 5 5 5 6 5 4 5 6 7 6
0 0 4 8 13 10 6 28 0 107 126 3 0 0 0 0 0 0 2 10 4 3 3 4 4 5 4 6 6 5 6 4 5
46 0 19 94 101 78 66 31 0 0 112 25 0 0 0 0 0 0 1 1 2 0 0 2 2 2 4 6 7 5 5 5 8
2 3 49 111 112 63 44 45 0 51 66 31 0 0 0 0 0 1 0 0 0 0 0 1 1 2 2 3 3 3 5 5 6
68 33 67 125 110 115 77 17 0 0 20 1 0 1 0 0 0 0 0 0 0 0 0 0 0 0 2 2 2 3 4 4 4
135 138 90 78 0 7 29 0 0 0 0 0 0 0 0 0 0 0 0 0 0 0 0 0 0 0 1 1 2 2 2 1 2
188 167 138 102 48 7 0 0 0 0 0 0 0 0 0 0 0 0 0 0 0 0 0 0 0 0 0 1 1 1 0 1 1
60 133 124 112 74 55 28 0 0 0 0 0 0 0 0 0 0 0 0 0 0 0 0 0 0 0 0 0 0 0 0 1 0
85 62 109 136 120 78 44 19 0 0 0 0 0 0 0 0 0 0 0 0 0 0 0 1 0 2 1 1 0 0 0 0 0
77 57 71 76 70 57 41 23 0 0 0 0 0 0 0 0 0 0 0 0 0 0 0 2 4 1 5 5 1 0 0 0 0
71 57 50 48 56 51 32 21 9 0 0 0 0 0 0 0 0 0 0 0 0 0 0 2 3 10 7 12 7 0 0 0 0
61 39 23 24 38 35 30 22 0 0 0 0 0 0 0 0 0 0 0 0 0 0 0 0 1 14 11 15 17 18 0 0 0
82 43 9 10 22 42 32 11 0 0 0 0 0 0 0 0 0 0 0 0 0 0 0 0 0 0 0 12 25 42 30 0 0
109 105 37 21 25 25 20 13 0 0 0 0 0 0 0 0 0 0 0 0 0 0 0 0 0 0 0 0 1 29 55 24 0
155 149 123 73 51 58 29 0 0 0 0 0 0 0 12 0 0 0 0 0 0 0 0 0 0 0 0 0 12 36 32 50 32
312 202 174 140 92 113 65 19 17 32 1 0 0 8 47 0 0 0 0 0 0 0 0 0 0 0 0 0 0 0 3 20 39
333 264 220 234 141 158 134 37 33 12 23 0 0 7 0 4 1 0 0 0 0 0 0 0 0 0 0 0 0 0 0 0 27
84 203 176 233 181 113 108 14 17 0 2 21 4 2 0 0 0 2 17 0 0 0 0 0 0 0 0 0 0 0 0 0 10

GFSFLT1_con_sbcape_099.txt.gz
CAPE
9 11 26 26 28 23 13 9 20 10 4 2 0 41 70 80 6 3 3 8 10 8 7 8 6 6 5 5 6 5 5 4 4
4 6 25 33 17 22 57 76 67 78 96 68 31 0 13 1 0 0 0 2 7 5 5 5 5 5 6 5 5 5 5 4 4
0 2 20 31 16 36 45 64 108 116 67 1 0 0 0 0 0 0 0 5 2 3 3 2 3 3 4 4 7 7 6 7 6
0 7 24 19 19 20 18 90 140 106 43 0 0 0 0 0 0 0 0 4 1 1 1 0 2 2 4 4 6 6 9 11 8
0 5 19 92 56 50 57 0 98 104 10 0 0 0 0 0 0 0 0 3 0 0 0 0 0 2 2 2 3 5 7 6 5
0 0 7 86 89 51 30 0 13 97 31 0 0 0 0 0 0 0 2 0 0 0 0 0 0 0 1 1 1 3 3 4 3
11 0 36 106 82 75 48 0 1 7 0 0 0 1 0 0 0 0 0 0 0 0 0 0 0 0 0 1 0 2 2 2 2
58 9 1 0 0 0 1 0 0 1 1 0 0 0 0 0 0 0 0 0 0 0 0 0 0 0 0 0 1 2 2 2 2
79 60 41 3 0 0 1 0 0 0 0 0 0 0 0 0 0 0 0 0 0 0 0 0 0 0 0 0 1 1 1 1 1
172 107 78 42 15 10 0 0 0 0 0 0 0 0 0 0 0 0 0 0 0 0 0 0 0 0 0 1 1 1 1 1 0
64 129 117 89 69 54 42 15 0 0 0 0 0 0 0 0 0 0 0 0 0 0 0 0 0 1 0 0 0 0 0 0 0
80 58 117 114 95 69 55 35 14 0 0 0 0 0 0 0 0 0 0 0 0 0 0 2 2 1 5 1 2 0 0 0 0
74 56 54 63 73 62 55 38 19 4 0 0 0 0 0 0 0 0 0 0 0 0 0 0 3 4 4 9 9 0 0 0 0
61 47 50 46 51 37 41 24 14 17 0 0 0 0 0 0 0 0 0 0 0 0 0 0 0 3 9 11 29 19 0 0 0
89 51 30 39 59 76 63 24 25 0 0 0 0 0 0 0 11 0 0 0 0 0 0 0 0 0 0 28 23 46 28 0 0
135 201 72 64 67 97 88 54 34 22 9 0 0 0 0 6 8 0 0 0 0 0 0 0 0 0 0 12 39 57 71 63 1
201 217 246 108 114 110 119 108 67 34 34 28 47 28 60 25 22 19 9 0 0 0 0 0 4 20 7 0 19 67 83 96 103
427 341 347 331 235 210 228 150 97 73 44 23 62 95 73 80 7 8 7 0 0 0 0 0 0 0 3 0 0 0 11 65 101
660 548 382 434 339 273 350 213 145 104 153 61 12 37 71 72 120 0 0 0 0 0 0 0 0 0 0 0 0 0 0 0 25
256 265 282 355 473 329 323 406 229 184 147 147 109 47 37 22 25 36 3 0 0 0 0 0 0 0 0 0 0 0 0 0 10

GFSFLT1_con_sbcape_105.txt.gz
CAPE
53 36 22 30 15 8 0 0 1 76 135 24 71 12 0 0 0 0 0 0 8 7 6 7 7 6 9 7 8 8 7 11 9
15 32 85 75 113 20 1 0 86 110 73 9 9 0 0 0 0 0 0 0 4 5 5 6 6 6 5 8 8 7 10 7 9
16 70 133 297 243 257 101 79 105 55 0 0 2 0 0 0 0 0 0 5 2 3 4 5 6 6 5 7 8 7 7 7 11
28 41 252 191 181 388 271 80 74 0 0 0 0 0 0 0 0 0 0 5 0 2 3 4 5 6 5 5 5 8 7 7 6
5 24 165 179 174 371 258 75 21 0 0 0 0 0 0 0 0 0 0 0 0 2 2 4 3 3 3 4 5 5 5 4 5
4 0 25 99 83 176 200 65 0 0 0 0 0 0 0 0 0 0 0 0 0 1 1 1 2 2 3 3 3 3 3 3 4
0 4 9 71 21 13 69 84 0 0 0 0 0 0 0 0 0 0 0 0 0 0 0 0 1 2 1 2 1 3 1 2 2
0 0 0 0 0 0 0 9 0 0 0 0 0 0 0 0 0 0 0 0 0 0 0 0 0 0 1 1 1 2 2 2 2
0 0 0 0 0 0 0 0 0 0 0 0 0 0 0 0 0 0 0 0 0 0 0 0 0 0 0 0 1 1 0 0 1
0 0 0 0 0 0 0 0 0 0 0 0 0 0 0 0 0 0 0 0 0 0 0 0 0 0 0 0 0 0 0 0 0
0 0 0 0 0 0 0 0 0 0 0 0 0 0 0 0 0 0 0 0 0 0 0 0 0 0 0 0 0 0 0 0 0
0 0 0 0 0 0 0 0 0 0 0 0 0 0 0 0 0 0 0 0 0 0 0 1 1 0 1 1 0 0 0 0 0
0 10 0 0 0 0 0 0 0 0 0 0 0 0 0 0 0 0 0 0 0 0 10 21 0 1 3 7 2 0 0 0 0
0 0 3 0 0 0 0 0 0 0 0 0 0 0 0 0 0 0 0 0 0 0 0 0 3 21 1 8 16 16 1 0 0
0 0 0 0 0 0 0 0 0 0 0 0 0 0 0 0 0 0 0 0 0 0 0 0 0 0 73 61 64 80 58 4 0
0 0 0 0 0 0 0 0 0 0 0 0 0 0 0 0 0 0 0 0 0 0 0 0 0 0 0 62 109 107 126 123 53
0 4 0 0 0 0 0 0 0 0 0 0 0 0 0 0 0 0 0 0 0 0 0 0 0 0 0 0 48 139 121 146 132
52 32 30 0 0 0 0 0 0 0 0 0 0 0 0 0 0 0 0 0 0 0 0 0 0 0 0 0 0 6 22 49 98
197 59 48 56 0 0 0 0 0 0 0 0 0 0 0 0 1 0 0 0 0 0 0 0 0 0 0 0 0 0 0 0 2
30 101 117 78 77 27 18 27 8 2 8 0 0 0 0 0 0 0 0 0 0 0 0 0 0 0 0 0 0 0 0 0 0

GFSFLT1_con_sbcape_108.txt.gz
CAPE
16 1 7 48 37 62 0 111 198 96 202 338 0 0 0 0 0 0 0 0 8 7 7 7 5 6 7 9 8 8 7 11 9
21 5 12 9 3 0 29 191 85 47 125 37 0 0 0 0 0 0 0 0 8 6 7 7 8 7 8 8 8 7 10 12 11
12 14 119 63 2 5 189 177 39 20 76 0 0 0 0 0 0 0 0 10 5 6 8 7 7 7 8 8 8 8 11 9 11
17 298 415 438 295 307 321 103 0 3 0 0 0 0 0 0 0 0 0 11 5 6 5 6 6 8 9 8 8 8 7 7 10
203 143 258 435 513 367 288 74 0 0 0 0 0 0 0 0 0 0 0 1 2 3 4 3 5 6 6 6 6 5 7 7 9
18 32 66 246 368 279 120 42 0 0 0 0 0 0 0 0 0 0 1 0 1 1 1 1 3 4 5 4 4 3 4 4 5
1 17 18 77 176 195 100 2 0 0 0 0 0 0 0 0 0 0 0 0 0 0 0 1 2 2 3 1 2 1 2 3 3
0 2 0 0 0 2 26 5 0 0 0 0 0 0 0 0 0 0 0 0 0 0 0 0 1 1 2 2 2 1 1 2 2
0 0 0 0 0 0 0 0 0 0 0 0 0 0 0 0 0 0 0 0 0 0 0 0 0 0 1 0 1 1 1 0 1
0 0 0 0 0 0 0 0 0 0 0 0 0 0 0 0 0 0 0 0 0 0 0 0 0 1 0 0 0 0 0 0 0
0 0 0 0 0 0 0 0 0 0 0 0 0 0 0 0 0 0 0 0 0 0 0 1 0 1 1 0 0 0 0 0 0
0 0 0 0 0 0 0 0 0 0 0 0 0 0 0 0 0 0 0 0 0 0 0 1 2 1 3 3 0 0 0 0 0
0 0 0 0 0 0 0 0 0 0 0 0 0 0 0 0 0 0 0 0 0 0 23 32 2 4 6 3 4 0 0 0 0
0 0 0 0 0 0 0 0 0 0 0 0 0 0 0 0 0 0 0 0 0 0 0 0 21 34 12 18 15 17 5 0 0
0 0 0 0 0 0 0 0 0 0 0 0 0 0 0 0 0 0 0 0 0 0 0 0 0 0 104 87 89 105 99 16 0
0 0 0 0 0 0 0 0 0 0 0 0 0 0 0 0 0 0 0 0 0 0 0 0 0 0 0 111 149 119 146 121 91
0 0 0 0 0 0 0 0 0 0 0 0 0 0 0 0 0 0 0 0 0 0 0 0 0 0 0 0 19 137 133 127 127
2 0 0 0 0 0 0 0 0 0 0 0 0 0 0 0 0 0 0 0 0 0 0 0 0 0 0 0 0 0 25 81 105
63 20 30 0 0 0 0 0 0 0 0 0 0 0 0 0 0 0 0 0 0 0 0 0 0 0 0 0 0 0 0 2 26
133 98 46 38 17 0 0 6 0 0 0 0 0 0 0 0 0 0 0 0 0 0 0 0 0 0 0 0 0 0 0 0 0

GFSFLT1_con_sbcape_111.txt.gz
CAPE
104 84 99 209 251 75 251 169 75 410 295 7 0 0 0 0 0 0 0 0 8 10 10 9 8 8 8 12 10 12 11 14 11
27 14 51 96 30 156 195 0 122 507 93 0 0 0 0 0 0 0 0 0 8 8 8 8 8 8 10 8 11 12 11 11 11
0 1 22 23 12 223 53 0 76 94 0 0 0 0 0 0 0 0 0 10 7 8 7 8 8 7 8 7 9 8 11 11 11
0 7 19 22 314 453 229 39 72 21 0 0 0 0 0 0 0 0 0 15 5 6 6 7 8 7 8 8 8 10 10 7 10
76 84 90 136 458 445 256 67 4 35 0 0 0 0 0 0 0 0 0 5 3 3 3 3 5 5 6 6 5 7 7 7 8
14 86 253 381 418 377 159 55 0 0 0 0 0 0 0 0 0 0 3 1 1 2 1 2 4 4 4 3 3 4 5 5 5
12 9 151 253 209 186 107 0 0 0 0 0 0 0 0 0 0 0 0 0 0 0 0 0 1 2 2 2 2 2 3 4 4
4 0 0 2 9 0 2 0 0 0 0 0 0 0 0 0 0 0 0 0 0 0 0 0 0 1 1 2 2 1 2 1 2
0 0 0 0 0 0 0 0 0 0 0 0 0 0 0 0 0 0 0 0 0 0 0 0 0 1 1 1 1 1 2 2 1
0 0 0 0 0 0 0 0 0 0 0 0 0 0 0 0 0 0 0 0 0 0 0 0 1 1 1 1 1 1 1 0 0
0 0 0 0 0 0 0 0 0 0 0 0 0 0 0 0 0 0 0 0 0 0 0 0 1 3 2 2 1 0 0 0 0
0 0 0 0 0 0 0 0 0 0 0 0 0 0 0 0 0 0 0 0 0 0 0 2 2 3 5 2 2 0 0 0 0
0 0 0 0 0 0 0 0 0 0 0 0 0 0 0 0 0 0 0 0 0 0 7 23 3 3 5 4 4 0 0 0 0
0 0 0 0 0 0 0 0 0 0 0 0 0 0 0 0 0 0 0 0 0 0 0 0 14 53 15 9 35 44 5 0 0
0 0 0 0 0 0 0 0 0 0 0 0 0 0 0 0 0 0 0 0 0 0 0 0 0 0 81 49 57 100 103 74 6
0 0 0 0 0 0 0 0 0 0 0 0 0 0 0 0 0 0 0 0 0 0 0 0 0 0 3 124 109 113 155 145 97
4 0 0 0 0 0 0 0 0 0 0 0 0 0 0 0 0 0 0 0 0 0 0 0 0 0 0 3 13 61 106 149 200
0 0 0 0 0 0 0 0 0 0 0 0 0 0 0 0 0 0 0 0 0 0 0 0 0 0 0 0 0 0 6 48 118
0 0 0 0 0 0 0 0 0 0 0 0 0 0 0 0 0 0 0 0 0 0 0 0 0 0 0 0 0 0 0 0 6
9 3 9 0 0 0 0 0 0 0 0 0 0 0 0 0 0 2 0 0 0 0 0 0 0 0 0 0 0 0 0 0 0

GFSFLT1_con_sbcape_117.txt.gz
CAPE
931 830 505 504 563 588 487 377 238 124 2 0 0 0 0 0 0 0 3 6 11 12 8 8 11 14 12 14 12 16 14 16 17
980 466 499 662 702 676 441 380 144 33 1 0 0 0 0 0 0 1 7 7 10 11 7 8 11 13 11 12 14 17 13 15 19
675 401 598 695 450 621 499 274 87 1 0 0 0 0 0 0 0 2 5 14 8 8 8 8 10 8 12 12 11 16 13 15 13
383 309 668 536 422 496 502 169 1 0 0 0 0 0 0 0 0 0 3 15 7 6 7 9 8 8 9 9 9 10 10 11 11
183 52 451 331 313 583 428 146 0 0 0 0 0 0 0 0 0 0 1 9 4 6 5 6 6 6 6 5 5 7 9 10 8
0 0 190 112 149 325 251 86 0 0 0 0 0 0 0 0 0 1 11 5 3 3 4 3 4 4 4 3 3 3 5 5 7
0 3 119 85 43 115 147 3 0 0 0 0 0 0 0 0 0 0 5 3 1 2 2 2 2 1 1 1 1 2 2 3 2
4 176 360 15 0 1 0 0 0 0 0 0 0 0 0 0 0 0 1 2 2 1 1 1 0 1 1 1 1 1 1 0 1
8 22 14 13 0 0 0 0 0 0 0 0 0 0 0 0 0 0 0 1 1 1 0 0 0 1 1 1 0 0 0 0 0
5 1 3 7 0 0 0 0 0 0 0 0 0 0 0 0 0 0 0 0 0 0 0 0 0 0 0 0 0 0 0 0 0
4 1 5 4 0 0 0 0 0 0 0 0 0 0 0 0 0 0 0 0 0 0 1 1 1 1 1 1 0 0 0 0 0
4 4 4 1 0 0 0 0 0 0 0 0 0 0 0 0 0 0 0 0 0 0 3 3 3 4 1 1 1 0 0 0 0
1 2 1 0 0 0 0 0 0 0 0 0 0 0 0 0 0 0 0 0 0 0 0 40 7 5 3 8 3 0 0 0 0
0 0 0 0 0 0 0 0 0 0 0 0 0 0 0 0 0 0 0 0 0 0 0 0 16 46 9 13 47 7 2 0 0
0 0 0 0 0 0 0 0 0 0 0 0 0 0 0 0 0 0 0 0 0 0 0 0 0 0 75 94 101 142 132 58 1
0 0 0 0 0 0 0 0 0 0 0 0 0 0 0 0 0 0 0 0 0 0 0 0 0 0 0 91 148 158 195 109 151
0 0 0 0 0 0 0 0 0 0 0 0 0 5 0 0 0 0 0 0 0 0 0 0 0 1 3 18 63 154 187 173 184
0 0 0 0 0 0 0 0 0 20 0 0 7 0 0 0 0 0 0 0 0 0 0 0 0 3 4 0 0 0 0 4 45
3 0 0 0 0 5 9 0 0 2 22 0 0 0 0 18 0 0 0 0 0 0 0 0 0 0 1 0 0 0 0 0 0
0 0 0 0 0 7 4 0 0 0 0 0 0 0 0 0 0 15 0 0 0 0 0 0 0 0 0 0 0 0 0 0 0

GFSFLT1_con_sbcape_120.txt.gz
CAPE
1085 858 930 932 704 686 509 262 133 51 4 1 1 0 0 0 0 0 3 6 16 16 11 13 13 17 16 15 16 16 16 18 20
1024 663 801 789 724 605 433 201 85 4 1 1 0 0 0 0 0 0 3 11 15 12 11 14 12 13 12 16 14 12 14 20 24
874 809 796 828 830 616 487 175 8 2 0 0 0 0 0 0 0 0 3 18 13 12 13 13 11 13 10 12 11 11 13 12 12
841 775 818 855 643 616 485 84 2 0 0 0 0 0 0 0 0 0 2 19 11 12 9 8 8 8 8 8 7 11 8 11 14
540 373 442 577 483 435 231 17 0 0 0 0 0 0 0 0 0 0 4 18 12 11 8 5 5 5 5 5 6 7 6 6 6
129 2 137 371 535 349 165 0 0 0 0 0 0 0 0 0 0 0 10 10 7 6 5 4 4 4 3 3 4 4 5 5 6
5 18 0 222 228 129 38 0 0 0 0 0 0 0 0 0 0 0 9 3 4 4 3 3 2 2 2 2 2 2 2 2 2
14 179 17 111 50 7 0 0 0 0 0 0 0 0 0 0 0 0 6 3 3 3 2 1 2 1 1 1 1 1 0 0 0
6 100 25 20 13 8 0 0 0 0 0 0 0 0 0 0 0 0 0 3 1 1 1 1 1 1 1 0 0 0 0 0 0
7 45 36 14 9 2 0 0 0 0 0 0 0 0 0 0 0 0 0 0 0 1 0 1 1 1 0 0 0 0 0 0 0
17 16 47 16 1 0 0 0 0 0 0 0 0 0 0 0 0 0 0 0 0 0 2 2 2 1 1 0 0 0 0 0 0
14 8 49 11 1 0 0 0 0 0 0 0 0 0 0 0 0 0 0 0 0 0 2 3 3 4 3 3 1 0 0 0 0
8 67 59 15 4 0 0 0 0 0 0 0 0 0 0 0 0 0 0 0 0 0 6 44 5 5 2 8 3 0 0 0 0
0 10 31 20 8 0 0 0 0 4 1 2 0 0 0 0 0 0 0 0 0 3 0 0 13 46 14 17 48 10 0 0 0
13 8 14 14 6 1 0 0 0 0 12 0 0 0 0 0 0 0 0 0 0 0 0 0 0 0 43 66 68 142 123 64 11
20 29 21 5 0 0 0 0 0 2 0 0 0 0 3 0 0 0 0 0 0 0 0 16 22 10 0 57 100 155 166 118 138
11 10 9 1 0 0 0 0 5 0 2 22 27 33 29 0 0 0 0 0 0 0 0 0 11 26 31 27 38 95 143 169 175
7 2 0 0 0 0 0 0 6 17 11 18 51 55 16 0 0 13 2 0 0 0 0 0 1 17 39 9 0 0 2 0 31
1 0 0 0 0 0 0 0 21 66 242 15 3 19 27 76 50 18 0 0 0 0 0 0 0 1 8 6 1 0 0 0 0
15 13 14 11 0 1 1 12 47 80 99 154 109 73 63 73 59 18 30 1 0 0 0 0 0 0 0 0 0 0 0 0 0

GFSFLT1_con_sbcape_123.txt.gz
CAPE
1241 922 1022 872 672 619 642 306 7 5 5 2 0 0 0 0 0 0 5 6 10 16 17 18 16 15 13 15 15 15 21 12 19
1200 905 1009 910 664 533 393 64 5 3 1 0 0 0 0 0 0 2 4 12 15 17 16 17 15 14 16 11 14 14 13 18 15
1161 1029 928 833 540 416 265 5 5 1 0 0 0 0 0 0 0 6 8 23 15 12 14 11 10 12 14 12 12 13 13 13 14
906 829 919 875 629 437 280 5 2 0 0 0 0 0 0 0 0 0 4 12 15 16 13 13 13 14 13 13 10 13 14 10 12
505 509 718 748 465 370 164 6 1 0 0 0 0 0 0 0 0 0 4 21 11 9 10 9 9 10 8 10 8 8 7 11 9
171 51 394 411 356 188 64 1 0 0 0 0 0 0 0 0 0 0 13 10 7 8 6 6 5 4 4 4 3 3 4 5 4
58 101 234 268 159 32 0 0 0 0 0 0 0 0 0 0 0 0 12 5 5 4 3 3 2 2 2 2 2 1 0 1 1
86 255 247 183 0 1 0 0 0 0 0 0 0 0 0 0 0 0 5 4 3 3 1 1 1 1 0 0 0 0 0 0 0
17 50 35 110 13 0 0 0 0 0 0 0 0 0 0 0 0 0 0 4 2 3 1 0 0 0 0 0 0 0 0 0 0
1 19 30 43 16 0 0 0 0 0 0 0 0 0 0 0 0 0 0 0 2 1 1 1 0 0 0 0 0 0 0 0 0
13 18 24 13 15 2 0 0 0 0 0 0 0 0 0 0 0 0 0 0 0 0 1 2 2 1 1 0 0 0 0 0 0
125 78 24 15 10 0 0 0 2 0 0 0 0 0 0 0 0 0 0 0 0 0 1 3 3 2 4 3 0 0 0 0 0
45 74 14 11 9 0 0 2 1 1 0 0 0 0 0 0 0 0 0 0 0 0 0 34 6 4 4 5 3 0 0 0 0
10 22 11 13 8 3 1 1 0 23 7 4 0 0 4 0 0 0 0 0 0 1 0 0 12 50 34 9 21 10 0 0 0
42 144 115 21 16 4 0 0 0 16 7 0 0 0 0 0 0 0 0 0 0 0 1 0 0 0 64 107 95 144 170 77 22
6 23 37 24 12 5 0 0 0 0 21 11 4 4 5 0 0 0 0 0 0 0 0 8 28 2 3 91 148 178 178 139 134
4 8 14 9 16 8 0 0 0 10 19 25 113 61 61 13 24 27 7 0 1 0 0 0 3 42 61 26 44 98 116 173 204
10 15 16 14 8 3 0 3 36 23 36 23 122 121 88 17 0 8 4 9 12 11 0 0 0 5 2 28 7 0 1 4 27
24 31 37 10 4 0 0 13 29 62 126 60 43 145 120 43 57 41 24 7 5 1 0 0 0 0 0 0 0 0 0 0 0
45 43 6 2 0 0 9 10 34 70 242 325 196 215 97 93 104 76 76 1 0 0 0 0 0 0 0 0 0 0 0 0 0

GFSFLT1_con_sbcape_126.txt.gz
CAPE
1186 733 917 745 649 602 482 153 20 9 5 0 0 0 0 0 0 0 3 0 16 17 10 12 12 15 16 22 29 13 23 22 29
1138 979 923 746 648 677 169 15 7 5 0 0 0 0 0 0 0 0 0 5 17 16 9 6 14 17 17 26 15 17 15 21 11
1021 1005 855 711 653 456 112 5 4 0 0 0 0 0 0 0 0 0 0 12 12 16 10 14 8 13 12 10 9 13 8 10 12
1097 980 890 672 445 342 33 7 1 0 0 0 0 0 0 0 0 0 0 5 10 14 7 11 8 8 7 7 8 10 5 8 10
521 494 633 535 369 194 4 4 0 0 0 0 0 0 0 0 0 0 2 22 12 10 9 8 9 10 9 6 6 6 8 10 12
128 271 300 274 253 116 10 1 0 0 0 0 0 0 0 0 0 0 14 12 7 6 5 5 5 5 3 4 4 4 6 8 8
33 127 154 160 50 0 1 0 0 0 0 0 0 0 0 0 0 0 10 7 5 4 3 2 2 2 1 2 2 2 1 2 1
56 90 88 1 0 0 0 0 0 0 0 0 0 0 0 0 0 0 6 7 4 2 2 2 1 1 1 0 0 0 0 0 0
32 75 53 0 0 0 0 0 0 0 0 0 0 0 0 0 0 0 0 5 2 1 1 1 0 0 0 0 0 0 0 0 0
10 10 24 0 0 0 0 0 0 0 0 0 0 0 0 0 0 0 0 0 2 2 1 0 0 0 0 0 0 0 0 0 0
1 0 0 1 0 0 0 0 0 0 0 0 0 0 0 0 0 0 0 0 0 0 1 2 1 1 1 0 0 0 0 0 0
0 0 0 0 0 0 0 0 0 0 0 0 0 0 0 0 0 0 0 0 0 0 1 2 2 2 4 3 0 0 0 0 0
2 0 0 0 0 0 0 0 0 0 0 0 0 0 0 0 0 0 0 0 0 0 0 32 7 5 6 6 5 0 0 0 0
7 22 0 0 0 0 0 0 0 0 0 0 0 0 0 0 0 0 0 0 0 0 0 0 10 41 54 17 26 29 9 0 0
20 34 2 0 0 0 0 0 0 0 0 0 0 0 0 0 0 0 0 0 0 0 0 0 0 8 48 103 118 144 198 151 79
1 13 1 2 0 0 0 0 0 0 0 0 0 0 0 0 0 0 0 0 0 0 0 0 0 0 3 97 175 186 219 207 189
0 0 14 1 0 0 0 0 0 0 0 0 0 10 2 0 0 0 0 0 0 0 0 2 0 0 1 3 51 170 166 165 163
0 0 14 2 0 0 0 0 0 0 0 0 5 6 0 0 0 0 0 0 0 0 0 0 0 0 0 0 1 3 0 0 6
0 1 5 0 0 0 0 0 0 0 1 0 0 1 6 0 0 0 0 0 0 0 0 0 0 0 0 0 0 0 0 0 0
27 12 1 0 0 0 0 0 0 5 22 8 0 0 0 0 0 0 0 0 0 0 0 0 0 0 0 0 0 0 0 0 1

GFSFLT1_con_sbcape_129.txt.gz
CAPE
993 916 939 737 596 753 626 457 255 141 137 31 0 2 1 0 0 0 8 0 11 12 21 19 15 21 29 16 16 21 26 14 17
1054 1030 924 726 580 535 287 113 15 15 15 0 0 0 0 0 0 0 2 3 18 15 19 21 8 7 8 12 15 8 17 14 22
1159 1040 848 658 601 254 6 6 5 0 0 0 0 0 0 0 0 0 3 29 19 14 13 10 15 9 10 15 12 11 12 11 14
1278 990 827 641 577 106 6 5 0 0 0 0 0 0 0 0 0 0 0 19 12 11 8 6 7 7 10 10 10 10 10 6 13
939 582 561 482 305 9 10 1 0 0 0 0 0 0 0 0 0 0 2 22 12 7 9 8 9 11 7 6 8 8 7 11 8
275 318 282 280 135 8 7 0 0 0 0 0 0 0 0 0 0 0 20 11 10 7 7 7 7 5 5 3 3 4 3 5 8
134 90 96 170 54 11 3 0 0 0 0 0 0 0 0 0 0 0 14 10 5 6 4 3 3 3 2 1 1 2 2 2 3
35 51 37 0 0 0 0 0 0 0 0 0 0 0 0 0 0 0 6 8 4 3 2 2 2 2 1 0 0 0 0 0 0
48 71 4 0 0 0 0 0 0 0 0 0 0 0 0 0 0 0 0 6 2 2 2 1 0 0 0 0 0 0 0 0 0
27 1 1 0 0 0 0 0 0 0 0 0 0 0 0 0 0 0 0 0 4 2 1 1 0 0 0 0 0 0 0 0 0
5 0 0 0 0 0 0 0 0 0 0 0 0 0 0 0 0 0 0 0 0 1 2 2 1 1 0 0 0 0 0 0 0
0 2 0 0 0 0 0 0 0 0 0 0 0 0 0 0 0 0 0 0 0 0 1 1 1 1 1 2 0 0 0 0 0
1 0 0 0 0 0 0 0 0 0 0 0 0 0 0 0 0 0 0 0 0 0 9 18 4 2 5 4 5 4 0 0 0
0 2 0 0 0 0 0 0 0 0 0 0 0 0 0 0 0 0 0 0 0 0 0 0 10 30 31 23 15 29 58 20 2
0 2 0 0 0 0 0 0 0 0 0 0 0 0 0 0 0 0 0 0 0 0 0 0 0 5 52 75 95 105 186 159 118
11 0 0 0 0 0 0 0 0 0 0 0 0 0 0 0 0 0 0 0 0 0 0 0 0 0 4 60 125 182 187 185 154
14 4 0 0 0 0 0 0 0 0 0 0 0 0 0 0 0 0 0 0 0 0 0 0 0 0 0 0 17 148 174 163 161
8 6 4 0 0 0 0 0 0 0 0 0 0 0 0 0 0 0 0 0 0 0 0 0 0 0 0 0 0 2 23 30 20
16 1 1 0 0 0 0 0 0 0 0 0 0 0 0 0 0 0 0 0 0 0 0 0 0 0 0 0 0 0 0 0 0
1 0 0 0 0 0 0 0 0 0 0 0 0 0 0 0 0 0 0 0 0 0 0 0 0 0 0 0 0 0 0 0 3

GFSFLT1_con_sbcape_135.txt.gz
CAPE
963 1103 832 799 757 682 573 406 199 332 228 17 0 0 0 0 0 0 7 2 15 18 25 13 22 34 9 21 26 16 10 27 37
1199 1106 773 1009 775 649 519 148 1 42 171 16 0 0 0 0 0 0 0 2 16 22 29 13 15 29 9 15 29 26 29 29 15
1328 1053 821 949 848 719 598 110 0 0 70 0 0 0 0 0 0 0 5 47 22 14 12 14 9 11 16 13 12 16 6 12 24
1252 975 848 748 853 663 529 217 0 0 0 0 0 0 0 0 0 0 0 18 17 8 12 15 9 9 8 8 7 12 8 10 12
1169 694 606 623 439 242 302 208 0 0 0 0 0 0 0 0 0 0 1 11 13 13 6 11 8 9 8 9 6 8 7 8 9
475 455 350 307 218 204 178 75 0 0 0 0 0 0 0 0 0 0 10 12 12 10 10 6 5 5 6 6 4 4 4 5 4
412 212 210 169 48 99 72 0 0 0 0 0 0 0 0 0 0 0 14 13 8 7 5 3 1 3 2 2 1 1 2 4 2
140 77 76 0 0 3 2 0 0 0 0 0 0 0 0 0 0 0 8 10 6 4 2 2 1 1 1 1 0 0 0 1 0
198 178 35 0 0 0 0 0 0 0 0 0 0 0 0 0 0 0 0 8 4 2 1 1 1 1 1 0 0 0 0 0 0
219 152 38 0 0 0 0 0 0 0 0 0 0 0 0 0 0 0 0 1 4 2 1 1 1 1 0 0 0 0 0 0 0
187 132 32 0 0 0 0 0 0 0 0 0 0 0 0 0 0 0 0 0 0 3 3 3 3 2 1 0 0 0 0 0 0
168 104 37 1 0 0 0 0 0 0 0 0 0 0 0 0 0 0 0 0 0 0 2 4 4 4 3 5 1 0 0 0 0
179 70 27 0 0 0 0 0 0 0 0 0 0 0 0 0 0 0 0 0 0 0 0 28 6 3 7 5 6 5 4 0 0
119 66 48 0 0 0 0 0 0 0 0 0 0 0 0 0 0 0 0 0 0 0 0 0 0 1 1 7 21 21 53 61 18
95 51 29 0 0 0 0 0 0 0 0 0 0 0 0 0 0 0 0 0 0 0 0 0 0 0 2 21 70 97 110 138 112
110 64 12 1 0 0 0 0 0 0 0 0 0 0 0 0 0 0 0 0 0 0 0 0 0 0 0 0 17 72 127 118 130
27 76 21 0 0 0 0 0 0 0 0 0 0 0 0 0 0 0 0 0 0 0 0 0 0 0 0 0 0 0 16 42 83
0 36 21 0 0 0 0 0 0 0 0 0 0 0 0 0 0 0 0 0 0 0 0 0 0 0 0 0 0 0 6 23 20
0 80 31 0 0 0 0 0 0 0 0 0 0 0 0 0 0 0 0 0 0 0 0 0 0 0 0 0 0 0 0 5 16
0 61 12 19 0 0 0 0 0 0 0 0 0 0 0 0 0 0 0 0 0 0 0 0 0 0 0 0 0 0 0 1 2

GFSFLT1_con_sbcape_138.txt.gz
CAPE
999 1191 958 875 880 849 486 453 70 166 96 2 2 0 0 0 0 0 16 3 19 24 29 40 21 12 36 37 16 20 17 17 20
1086 1130 1047 944 897 612 562 183 80 279 73 1 2 0 0 0 0 0 0 1 48 26 25 26 24 7 17 14 12 16 14 9 13
1431 1239 1107 986 824 662 367 26 2 238 78 0 0 0 0 0 0 0 3 18 34 9 21 17 10 9 9 9 12 12 7 10 9
1440 1168 1145 990 842 666 343 98 7 233 13 0 0 0 0 0 0 0 1 38 24 14 7 9 9 7 7 7 10 4 10 8 11
1176 748 874 894 735 591 262 98 0 87 17 0 0 0 0 0 0 0 3 8 7 7 9 6 8 6 5 5 7 7 7 6 10
593 439 588 608 594 566 419 112 0 0 0 0 0 0 0 0 0 0 2 5 8 7 6 6 6 6 5 5 4 6 6 4 6
544 257 320 344 219 283 369 76 0 0 0 0 0 0 0 0 0 0 8 10 6 6 4 2 4 3 3 3 3 3 2 3 0
188 120 95 7 0 20 17 0 0 0 0 0 0 0 0 0 0 0 10 10 5 5 4 3 2 2 1 1 1 0 0 0 0
242 250 82 0 0 0 0 0 0 0 0 0 0 0 0 0 0 0 1 10 4 5 4 3 3 1 1 0 0 0 0 0 0
224 185 36 0 0 0 0 0 0 0 0 0 0 0 0 0 0 0 0 0 9 5 4 3 3 2 1 0 0 0 0 0 0
187 177 27 0 0 0 0 0 0 0 0 0 0 0 0 0 0 0 0 0 1 4 4 6 5 4 4 2 0 0 0 0 0
170 134 71 2 0 0 0 0 0 0 0 0 0 0 0 0 0 0 0 0 0 0 6 8 6 7 4 2 3 1 0 0 0
124 132 89 11 0 0 0 0 0 0 0 0 0 0 0 0 0 0 0 0 0 0 0 24 11 10 12 7 24 23 16 1 0
197 153 87 0 0 0 0 0 0 0 0 0 0 0 0 0 0 0 0 0 0 0 0 0 0 10 38 51 52 70 88 111 71
217 135 58 1 0 0 0 0 0 0 0 0 0 0 0 0 0 0 0 0 0 0 0 0 0 0 0 7 60 109 132 152 124
116 72 1 0 0 0 0 0 0 0 0 0 0 0 0 0 0 0 0 0 0 0 0 0 0 0 0 0 0 30 81 119 111
112 90 3 0 0 0 0 0 0 0 0 0 0 0 0 0 0 0 0 0 0 0 0 0 0 0 0 0 0 0 0 20 55
1 55 18 1 0 0 0 0 0 0 0 0 0 0 0 0 0 0 0 0 0 0 0 0 0 0 0 0 0 0 0 9 25
1 2 19 5 1 0 0 0 0 0 0 0 0 0 0 0 0 0 0 0 0 0 0 0 0 0 0 0 0 0 0 0 1
5 0 7 33 6 0 0 0 0 0 0 0 0 0 0 0 0 0 0 0 0 0 0 0 0 0 0 0 0 0 0 0 0

GFSFLT1_con_sbcape_141.txt.gz
CAPE
692 795 1105 1213 1031 949 686 307 200 130 63 5 2 0 0 0 5 8 18 21 17 49 47 14 26 33 34 30 23 23 18 18 15
1311 1246 1173 1150 1028 886 549 67 28 117 41 3 0 0 0 0 3 2 6 42 33 30 30 24 19 23 19 18 20 15 6 11 11
1436 1243 1171 1131 1053 879 655 216 87 106 37 3 0 0 0 0 0 2 9 64 18 23 24 7 12 13 15 17 18 13 10 12 10
1482 1259 1189 1122 1079 846 557 462 404 183 3 1 0 0 0 0 1 5 21 49 8 12 11 14 8 7 11 10 4 16 7 11 8
1244 953 941 976 880 577 252 225 585 144 16 0 0 0 0 0 0 5 7 31 12 10 8 8 6 4 4 5 4 8 5 8 5
1004 695 718 667 728 459 241 113 201 27 0 0 0 0 0 0 0 2 4 5 10 9 10 6 6 4 4 1 2 4 1 3 4
852 576 565 604 510 360 279 25 0 0 0 0 0 0 0 0 0 2 8 11 8 8 7 4 4 4 3 1 1 1 2 0 0
622 568 648 634 305 441 119 2 0 0 0 0 0 0 0 0 0 0 5 14 10 7 5 3 3 2 0 0 0 0 0 0 0
478 532 579 414 278 253 102 0 0 0 0 0 0 0 0 0 0 0 1 11 11 7 4 5 4 2 0 0 0 0 0 0 0
474 482 360 212 112 82 20 0 0 0 0 0 0 0 0 0 0 0 0 0 10 7 6 5 5 2 0 0 0 0 0 0 0
330 463 267 122 29 24 1 0 0 0 0 0 0 0 0 0 0 0 0 0 2 7 7 8 6 6 4 3 0 0 0 0 0
470 213 322 30 8 3 1 0 0 0 0 0 0 0 0 0 0 0 0 0 0 0 9 1 2 3 6 7 4 2 0 0 0
377 286 183 15 1 3 0 0 0 0 0 0 0 0 0 0 0 0 0 0 0 0 0 7 10 6 7 22 37 56 20 3 0
346 224 244 61 1 1 0 0 0 0 0 0 0 0 0 0 0 0 0 0 0 0 0 0 0 7 50 72 85 94 126 121 98
226 301 232 60 1 1 0 0 0 0 0 0 0 0 0 0 0 0 0 0 0 0 0 0 0 0 0 14 55 78 105 145 120
88 115 281 54 0 0 0 0 0 0 0 0 0 0 0 0 0 0 0 0 0 0 0 0 0 0 0 0 0 0 29 68 72
0 32 98 87 6 0 0 0 0 0 0 0 0 0 0 0 0 0 0 0 0 0 0 0 0 0 0 0 0 0 0 1 15
2 2 84 54 24 0 0 0 0 0 0 0 0 0 0 0 0 0 0 0 0 0 0 0 0 0 0 0 0 0 0 1 21
4 6 96 60 39 1 2 0 0 0 0 0 0 0 0 0 0 0 0 0 0 0 0 0 0 0 0 0 0 0 0 0 2
5 6 2 31 54 22 0 0 0 0 0 0 0 0 0 0 0 0 0 0 0 0 0 0 0 0 0 0 0 0 0 0 0

GFSFLT1_con_sbcape_144.txt.gz
CAPE
925 1101 1216 1437 1260 1262 974 724 226 222 115 5 2 0 0 1 3 16 25 7 20 36 7 24 36 17 25 23 22 14 13 21 24
1104 1167 1234 1335 1253 1123 602 237 34 105 86 5 1 0 0 5 3 4 13 20 14 17 16 13 24 24 22 24 10 8 18 14 11
1124 1335 1430 1336 1149 818 503 158 4 37 21 3 0 0 0 0 1 6 23 27 19 26 10 19 16 18 16 20 14 8 12 13 13
1454 1227 1197 1358 1122 829 693 540 135 63 30 0 0 0 0 0 1 4 27 19 18 9 13 8 6 14 15 6 6 6 9 4 7
1330 923 1068 1014 933 760 687 690 406 163 92 0 0 0 0 2 4 4 13 34 6 7 6 5 9 7 4 4 5 3 8 4 5
1031 504 822 706 830 724 455 593 430 69 0 0 0 0 0 3 4 4 21 25 13 10 8 7 6 4 2 0 0 1 3 2 1
603 644 613 611 647 462 469 534 208 4 2 1 0 0 0 3 5 8 7 14 12 13 8 6 6 3 0 0 0 0 0 0 0
910 1161 774 971 377 523 158 49 12 1 4 1 0 0 0 1 2 4 8 23 13 11 4 3 2 1 0 0 0 0 0 0 0
437 426 1075 697 617 475 200 35 5 6 0 0 0 0 0 0 0 2 1 25 8 8 7 5 0 0 0 0 0 0 0 0 0
741 560 1005 824 498 416 293 185 11 3 0 0 0 0 0 0 0 4 0 5 24 8 9 8 3 1 1 0 0 0 0 0 0
1034 686 647 702 593 434 319 213 15 2 0 0 0 0 0 0 0 0 0 0 8 17 10 10 5 5 4 3 1 0 0 0 0
911 1020 789 437 515 300 238 170 32 2 0 0 0 0 0 0 0 0 0 0 0 5 11 8 5 1 2 5 9 7 0 0 0
1115 1117 1025 767 201 239 143 127 38 3 0 0 0 0 0 0 1 0 0 0 0 0 0 19 9 9 11 17 38 48 12 5 3
672 745 723 475 380 86 46 4 0 0 0 0 0 0 2 0 0 0 0 0 0 0 0 0 0 20 51 69 81 114 141 102 87
344 536 324 452 123 38 22 34 0 0 0 0 0 2 1 3 0 0 0 0 0 0 0 0 0 0 0 26 63 83 105 118 114
0 176 200 304 136 26 5 17 1 0 0 0 0 0 2 3 1 0 0 0 0 0 0 0 0 0 0 0 5 17 33 46 71
0 4 271 178 115 37 1 2 0 0 0 0 0 1 0 0 0 0 0 0 0 0 0 0 0 19 26 9 0 0 0 4 19
0 0 71 158 126 33 1 1 0 0 0 0 0 0 0 0 0 0 0 0 0 0 0 0 4 29 40 10 0 0 0 0 11
0 0 9 38 153 74 7 0 0 0 0 0 0 0 0 0 0 0 0 0 0 0 0 0 22 28 35 12 1 0 0 5 32
0 0 0 72 189 148 18 0 0 0 0 0 0 0 0 0 5 0 0 0 0 0 0 0 14 5 19 21 0 0 0 1 6

GFSFLT1_con_sbcape_147.txt.gz
CAPE
868 1081 1105 1121 1109 991 1058 692 546 299 116 3 0 0 0 0 4 14 5 17 26 6 20 33 14 19 20 14 8 25 15 20 18
1262 1117 1105 1332 1372 872 765 493 216 122 135 2 0 0 0 5 8 13 5 33 10 3 8 16 18 22 13 8 13 9 13 10 11
1218 1084 1162 1448 1192 866 649 206 27 32 39 2 0 0 0 2 6 21 10 21 12 8 17 15 18 10 18 11 9 4 12 13 12
1290 1357 1354 1473 1090 829 760 426 143 70 8 1 0 0 0 2 8 41 6 30 9 11 7 9 7 15 5 7 4 8 4 7 7
1464 1088 1174 1255 1035 787 617 531 307 203 115 0 0 0 0 2 0 18 4 17 13 12 6 7 8 4 4 0 6 3 2 3 5
752 652 732 935 883 802 778 683 430 108 0 0 0 0 0 6 7 14 8 19 9 8 8 7 5 2 0 0 0 0 1 1 1
161 411 587 679 695 608 681 611 297 0 0 0 0 0 0 5 4 9 0 11 11 12 7 4 2 0 0 0 0 0 0 0 0
332 1128 816 870 453 586 290 263 122 0 3 0 0 0 0 5 5 1 0 9 15 22 7 0 1 0 0 0 0 0 0 0 0
632 828 1124 670 685 542 332 167 42 3 5 0 0 0 0 0 5 0 0 2 19 20 9 3 1 0 0 0 0 0 0 0 0
1090 622 828 1001 618 619 394 77 45 16 9 0 0 0 0 0 1 4 0 0 22 17 9 5 4 2 1 0 0 0 0 0 0
890 788 803 816 806 689 428 188 49 28 13 1 0 0 0 0 0 0 0 0 5 28 5 6 7 6 5 4 1 0 0 0 0
936 820 834 1000 675 519 311 226 75 18 14 4 0 0 0 0 0 0 1 0 0 3 12 9 8 7 7 7 2 3 0 0 0
732 792 924 861 623 724 424 158 99 6 12 6 0 0 0 0 0 0 0 0 0 0 0 56 23 6 4 5 17 30 39 42 15
61 861 848 795 690 611 571 350 179 61 0 0 0 0 0 0 0 0 0 0 0 0 0 0 0 5 37 26 52 71 182 171 109
0 271 869 707 480 595 396 308 131 111 0 0 0 0 0 0 0 0 0 0 0 0 0 0 0 0 4 49 95 103 103 176 134
0 109 439 748 431 323 182 139 72 31 0 0 0 0 0 0 2 0 0 0 0 0 0 0 0 0 0 9 36 49 67 76 54
0 1 129 502 569 298 158 60 38 10 3 0 0 0 0 2 3 0 0 0 0 0 0 0 0 0 0 0 0 17 22 34 36
0 0 0 326 502 314 166 11 47 0 0 0 0 0 0 0 0 0 0 0 0 0 0 0 0 0 0 10 1 0 0 6 16
0 0 0 0 216 198 97 52 10 0 0 0 0 0 0 0 0 0 0 0 0 0 0 0 0 0 0 24 9 1 0 0 20
0 0 0 0 0 158 190 69 13 0 0 0 0 0 0 0 0 0 0 0 0 0 0 0 0 0 0 21 16 0 0 2 48

GFSFLT1_con_sbcape_150.txt.gz
CAPE
871 983 1119 1059 902 994 868 644 524 127 140 0 0 0 0 2 1 1 54 12 32 15 24 18 22 27 18 13 26 16 11 17 14
1311 914 1247 1138 1147 955 804 653 405 97 150 0 0 0 0 2 2 0 18 12 18 18 38 21 37 11 13 13 10 13 9 5 5
1388 1076 1345 1404 1265 989 889 491 53 76 64 0 0 0 0 1 10 9 12 15 15 18 29 14 8 18 13 11 8 12 14 12 8
1404 1121 1390 1528 1359 1093 763 457 206 70 35 0 0 0 0 0 5 5 5 15 14 17 8 9 12 1 5 4 5 6 7 9 11
1126 952 1125 1423 1247 981 743 517 476 230 119 0 0 0 0 0 0 8 0 24 12 8 5 4 9 5 2 1 1 3 2 3 2
632 878 816 1013 982 876 738 557 390 133 0 0 0 0 0 0 0 0 13 9 4 7 5 4 3 3 0 0 0 0 0 1 0
514 582 466 786 744 664 698 604 293 0 0 0 0 0 0 0 0 0 12 0 4 7 3 0 0 0 0 0 0 0 0 0 0
40 152 195 422 378 313 342 271 14 0 0 0 0 0 0 0 0 0 0 0 7 5 1 0 0 0 0 0 0 0 0 0 0
250 396 386 451 291 284 99 48 23 0 0 0 0 0 0 0 0 0 0 0 17 9 7 1 0 0 0 0 0 0 0 0 0
487 363 472 342 343 253 121 9 4 0 0 0 0 0 0 0 0 0 0 0 13 15 4 3 3 1 0 0 0 0 0 0 0
478 428 469 463 313 250 177 25 0 0 0 0 0 0 0 0 0 0 0 0 0 21 7 4 4 3 3 2 1 0 0 0 0
715 571 422 456 382 194 199 21 0 0 0 0 0 0 0 0 0 0 0 0 0 0 10 7 5 4 3 4 7 2 0 0 0
179 541 469 442 370 209 148 100 0 2 0 0 0 0 0 0 0 0 0 0 0 0 0 10 16 10 3 5 7 16 36 46 34
6 77 488 477 358 229 74 119 60 9 1 0 0 0 0 0 0 0 0 0 0 0 0 0 0 3 9 6 19 12 79 160 162
0 14 117 416 369 218 201 196 131 67 12 0 0 0 0 0 0 0 0 0 0 0 0 0 0 0 0 15 21 54 89 210 189
0 0 76 261 362 245 192 229 150 105 38 0 0 0 0 0 0 0 0 0 0 0 0 0 0 0 0 0 44 56 74 81 82
0 0 0 129 348 318 313 333 222 113 2 2 0 0 0 0 0 0 0 0 0 0 0 0 0 0 0 0 0 39 55 61 78
0 0 0 103 211 316 285 276 243 159 50 1 0 0 0 0 0 0 0 0 0 0 0 0 0 0 0 0 0 0 5 26 64
0 0 0 0 105 238 330 327 226 201 80 2 0 0 0 0 0 0 0 0 0 0 0 0 0 0 0 0 0 0 0 23 73
0 0 0 0 0 107 293 214 188 171 99 0 5 0 0 0 0 0 0 0 0 0 0 0 0 0 0 0 0 0 0 40 60

GFSFLT1_con_sbcape_153.txt.gz
CAPE
856 1084 1034 1133 1197 1309 949 712 160 130 40 0 0 0 1 13 9 31 36 4 15 20 23 30 20 14 27 21 15 7 14 12 8
1407 1082 1149 1208 1287 1173 835 508 173 48 21 0 0 0 0 0 0 8 12 17 31 51 23 36 13 12 15 10 13 21 5 5 10
1448 1032 1340 1361 1248 1250 1048 741 185 44 0 0 0 0 0 0 8 29 11 5 12 11 22 15 24 11 5 7 11 12 8 7 10
1514 1050 1443 1469 1305 1275 988 678 475 93 64 0 0 0 0 0 0 4 0 41 15 16 5 12 6 7 7 12 7 6 4 6 6
1288 785 1101 1434 1279 1112 820 684 527 346 259 40 0 0 0 0 0 0 0 36 24 8 6 3 6 3 5 7 5 4 2 3 1
653 657 736 1069 1133 1009 811 679 558 213 45 0 0 0 0 0 0 0 10 23 0 2 1 3 5 3 0 0 0 1 1 0 0
461 575 560 722 864 773 805 660 388 40 0 0 0 0 0 0 0 0 21 6 0 1 1 0 0 0 0 0 0 0 0 0 0
187 202 112 309 413 399 502 391 91 0 0 0 0 0 0 0 0 0 11 20 0 3 7 2 1 0 0 0 0 0 0 0 0
119 16 48 171 167 157 150 94 2 0 0 0 0 0 0 0 0 0 0 11 0 4 9 3 2 1 0 0 0 0 0 0 0
392 107 114 206 108 93 12 0 0 0 0 0 0 0 0 0 0 0 0 0 23 18 7 9 4 2 0 0 0 0 0 0 0
397 346 350 237 162 109 39 1 1 0 0 0 0 0 0 0 0 0 0 0 0 38 3 6 5 3 2 2 1 0 0 0 0
593 454 344 323 181 123 51 11 0 0 0 0 0 0 0 0 0 0 0 0 0 0 14 10 6 5 5 5 5 3 0 0 0
137 518 452 453 305 140 46 51 23 0 0 0 0 0 0 0 0 0 0 0 0 0 0 5 14 10 6 8 10 9 14 28 38
0 61 223 181 388 194 70 115 39 12 0 0 0 0 0 0 0 0 0 0 0 0 0 0 0 3 51 6 26 23 113 111 232
0 0 2 179 187 212 91 123 90 62 34 17 1 0 0 0 0 0 0 0 0 0 0 0 0 0 0 0 1 41 151 165 283
0 0 0 62 178 230 171 161 111 123 58 0 0 0 0 0 0 0 0 0 0 0 0 0 0 0 0 0 30 55 73 184 350
0 0 0 0 146 196 204 193 177 118 38 21 0 0 0 0 0 0 0 0 0 0 0 0 0 0 0 0 0 23 69 78 115
0 0 0 0 149 243 262 220 252 167 108 23 0 0 0 0 0 0 0 0 0 0 0 0 0 0 0 0 0 1 10 54 55
0 0 0 0 1 121 288 375 315 212 144 39 8 0 0 0 0 0 0 0 0 0 0 0 0 0 0 0 0 0 0 1 54
0 0 0 0 0 93 220 233 321 268 216 131 0 24 0 0 0 0 0 0 0 0 0 0 0 0 0 0 0 0 6 42 91